Weather History for KTYS - June, 2014

Change the Weather History Date:

Saturday, June 7, 2014

  Actual Average Record
Temperature  
Mean Temperature 76 °F 73 °F  
Max Temperature 87 °F 84 °F 99 °F (1933)
Min Temperature 65 °F 63 °F 47 °F (1998)
Degree Days  
Heating Degree Days 0 0  
Month to date heating degree days 0 0  
Since 1 June heating degree days 0 0  
Since 1 July heating degree days 3797 3633  
Cooling Degree Days 11 8  
Month to date cooling degree days 72 53  
Year to date cooling degree days 277 215  
Since 1 June cooling degree days 72 53  
Growing Degree Days 26 (Base 50)    
Moisture  
Dew Point 62 °F    
Average Humidity 64    
Maximum Humidity 87    
Minimum Humidity 40    
Precipitation  
Precipitation 0.00 in 0.12 in 1.62 in (1871)
Month to date precipitation 0.33 0.86  
Year to date precipitation 16.36 22.30  
Snow  
Snow 0.00 in 0.00 in - ()
Month to date snowfall 0.0 0.0  
Since 1 June snowfall 0.0 0.0  
Since 1 July snowfall 12.4 6.5  
Snow Depth 0.00 in    
Sea Level Pressure  
Sea Level Pressure 29.92 in    
Wind  
Wind Speed 5 mph (WNW)    
Max Wind Speed 14 mph    
Max Gust Speed 17 mph    
Visibility 10 miles    
Events      
T = Trace of Precipitation, MM = Missing Value Source: NWS Daily Summary

Daily Weather History Graph

Daily Weather History Graph

Search for Another Location

Airport or City:

Trip Planner

Search our weather history database for the weather conditions in past years. The results will help you decide how hot, cold, wet, or windy it might be!

Date:

Astronomy

Jun. 07, 2014 Rise Set
Actual Time 6:19 AM EDT 8:50 PM EDT
Civil Twilight 5:49 AM EDT 9:20 PM EDT
Nautical Twilight 5:12 AM EDT 9:57 PM EDT
Astronomical Twilight 4:31 AM EDT 10:38 PM EDT
Moon 3:17 PM EDT (6/7) 2:29 AM EDT (6/7)
Length of Visible Light 15h 30m
Length of Day
14h 30m
Waxing Gibbous, 67% of the Moon is Illuminated
Jun 7
Waxing Gibbous
Jun 13
Full
Jun 19
Last Quarter
Jun 27
New
Jul 5
First Quarter

Hourly Weather History & Observations

Time (EDT) Temp. Heat Index Dew Point Humidity Pressure Visibility Wind Dir Wind Speed Gust Speed Precip Events Conditions
12:53 AM 72.0 °F - 63.0 °F 73% 29.91 in 10.0 mi ENE 3.5 mph - N/A   Mostly Cloudy
1:53 AM 70.0 °F - 61.0 °F 73% 29.90 in 10.0 mi NNE 3.5 mph - N/A   Mostly Cloudy
2:53 AM 69.1 °F - 61.0 °F 75% 29.90 in 10.0 mi NNW 4.6 mph - N/A   Mostly Cloudy
3:53 AM 69.1 °F - 60.1 °F 73% 29.91 in 10.0 mi North 5.8 mph - N/A   Scattered Clouds
4:53 AM 66.2 °F - 59.0 °F 78% 29.96 in 10.0 mi NNE 4.6 mph - N/A   Scattered Clouds
5:53 AM 66.0 °F - 60.1 °F 81% 29.94 in 10.0 mi North 3.5 mph - N/A   Scattered Clouds
6:53 AM 64.9 °F - 60.1 °F 84% 29.97 in 10.0 mi NW 3.5 mph - N/A   Mostly Cloudy
7:53 AM 66.2 °F - 62.6 °F 88% 30.00 in 10.0 mi Calm Calm - N/A   Mostly Cloudy
8:53 AM 69.8 °F - 60.8 °F 73% 29.99 in 10.0 mi East 3.5 mph - N/A   Scattered Clouds
9:53 AM 73.0 °F - 59.0 °F 61% 29.99 in 10.0 mi WNW 3.5 mph - N/A   Scattered Clouds
10:53 AM 75.9 °F - 60.1 °F 58% 29.98 in 10.0 mi Calm Calm - N/A   Mostly Cloudy
11:53 AM 79.0 °F - 61.0 °F 54% 29.98 in 10.0 mi Variable 3.5 mph - N/A   Scattered Clouds
12:53 PM 82.0 °F 83.0 °F 62.1 °F 51% 29.97 in 10.0 mi Variable 6.9 mph - N/A   Scattered Clouds
1:53 PM 82.9 °F 83.3 °F 61.0 °F 47% 29.94 in 10.0 mi Variable 4.6 mph - N/A   Scattered Clouds
2:53 PM 84.9 °F 84.8 °F 60.1 °F 43% 29.91 in 10.0 mi Variable 4.6 mph - N/A   Scattered Clouds
3:53 PM 87.1 °F 87.0 °F 61.0 °F 41% 29.90 in 10.0 mi West 9.2 mph - N/A   Mostly Cloudy
4:53 PM 86.0 °F 85.7 °F 60.1 °F 41% 29.89 in 10.0 mi West 9.2 mph - N/A   Mostly Cloudy
5:53 PM 86.0 °F 86.3 °F 62.1 °F 44% 29.88 in 10.0 mi WSW 8.1 mph - N/A   Mostly Cloudy
6:53 PM 84.9 °F 85.4 °F 62.1 °F 46% 29.88 in 10.0 mi West 9.2 mph - N/A   Overcast
7:53 PM 82.9 °F 84.0 °F 63.0 °F 51% 29.88 in 10.0 mi West 4.6 mph - N/A   Overcast
8:53 PM 79.0 °F - 64.9 °F 62% 29.88 in 10.0 mi SW 3.5 mph - N/A   Mostly Cloudy
9:53 PM 78.1 °F - 64.9 °F 64% 29.87 in 10.0 mi SW 4.6 mph - N/A   Overcast
10:53 PM 75.9 °F - 66.0 °F 71% 29.90 in 10.0 mi SSW 6.9 mph - N/A   Overcast
11:53 PM 75.9 °F - 66.0 °F 71% 29.88 in 10.0 mi South 6.9 mph - N/A   Overcast